{"data":{"norad_id":55918,"intl_designator":"2023-037E","name":"STARLINK-5867","alt_names":[],"object_type":"PAYLOAD","status":"ACTIVE","operator":null,"country":"US","launch_date":"2023-03-17","launch_site_code":"AFWTR","launch_vehicle":null,"mission":null,"orbit_class":"UNKNOWN","rcs_meters":null,"size_class":null,"mass_kg":null,"dimensions":null,"purposes":["comms"],"wikipedia_slug":null,"has_3d_model":false,"image_url":null,"decayed_at":null,"tle_current":{"epoch":"2026-05-25T04:33:11.035584Z","epoch_age_seconds":69041,"freshness":"FRESH","line1":"1 55918U 23037E   26145.18971106  .00000071  00000+0  13729-4 0  9997","line2":"2 55918  69.9992 111.6753 0003942 264.2227  95.8483 14.98331686174942","mean_motion":14.98331686,"eccentricity":0.0003942,"inclination_deg":69.9992,"raan_deg":111.6753,"arg_perigee_deg":264.2227,"mean_anomaly_deg":95.8483,"bstar":1.3729e-5,"rev_number":17494,"period_min":96.106890981147,"perigee_km":569.31091315106,"apogee_km":574.79044111571,"semimajor_km":6950.1876771334,"source":"CELESTRAK","updated_at":"2026-05-25T13:38:17.889450Z"}}}